When you browse on this site, cookies collect data to enhance your experience and personalize the content and advertising you see.
Visit our Privacy Policy to learn more. By continuing to use the site, you agree to this use of cookies and data.
  • In Czech Republic
  • List of Countries
  • For 7 days
  • Water Temperature
  • Satellite Maps
  • Weather Map
  • Weather Widgets
  • user-avatar
    Login

    Hourly Weather Zagate

    Today, 20 July, Saturday

    Time Temperature Precipitation Wind Pressure Humidity
    00:00 +14°C° 0 mm 2 mps 746 mmHg 92%
    01:00 +14°C° 0 mm 2 mps 746 mmHg 93%
    02:00 +13°C° 0 mm 2 mps 746 mmHg 93%
    03:00 +13°C° 0 mm 2 mps 746 mmHg 92%
    04:00 +13°C° 0 mm 2 mps 747 mmHg 92%
    05:00 +13°C° 0 mm 2 mps 747 mmHg 91%
    06:00 +15°C° 0 mm 2 mps 747 mmHg 85%
    07:00 +17°C° 0 mm 2 mps 747 mmHg 78%
    08:00 +19°C° 0 mm 2 mps 747 mmHg 72%
    09:00 +21°C° 0 mm 2 mps 748 mmHg 66%
    10:00 +22°C° 0 mm 3 mps 748 mmHg 60%
    11:00 +24°C° 0 mm 3 mps 748 mmHg 54%
    12:00 +25°C° 0 mm 3 mps 748 mmHg 53%
    13:00 +25°C° 0 mm 3 mps 748 mmHg 52%
    14:00 +26°C° 0 mm 3 mps 748 mmHg 51%
    15:00 +26°C° 0 mm 3 mps 748 mmHg 53%
    16:00 +26°C° 0 mm 3 mps 748 mmHg 55%
    17:00 +26°C° 0 mm 2 mps 748 mmHg 57%
    18:00 +24°C° 0.1 mm 2 mps 748 mmHg 65%
    19:00 +21°C° 0.1 mm 2 mps 748 mmHg 74%
    20:00 +20°C° 0.1 mm 1 mps 748 mmHg 83%
    21:00 +19°C° 0 mm 1 mps 748 mmHg 85%
    22:00 +18°C° 0 mm 1 mps 748 mmHg 88%
    23:00 +16°C° 0 mm 1 mps 749 mmHg 90%

    Tomorrow, 21 July, Sunday

    Time Temperature Precipitation Wind Pressure Humidity
    00:00 +15°C° 0 mm 0 mps 749 mmHg 90%
    01:00 +14°C° 0 mm 0 mps 749 mmHg 91%
    02:00 +14°C° 0 mm 0 mps 749 mmHg 91%
    03:00 +14°C° 0 mm 0 mps 749 mmHg 91%
    04:00 +14°C° 0 mm 0 mps 749 mmHg 91%
    05:00 +16°C° 0 mm 1 mps 749 mmHg 92%
    06:00 +18°C° 0 mm 1 mps 749 mmHg 86%
    07:00 +20°C° 0 mm 1 mps 749 mmHg 80%
    08:00 +22°C° 0 mm 1 mps 749 mmHg 75%
    09:00 +24°C° 0.3 mm 1 mps 749 mmHg 69%
    10:00 +25°C° 0.3 mm 1 mps 749 mmHg 64%
    11:00 +26°C° 0.3 mm 1 mps 749 mmHg 58%
    12:00 +26°C° 0.3 mm 1 mps 749 mmHg 58%
    13:00 +27°C° 0.3 mm 1 mps 749 mmHg 58%
    14:00 +27°C° 0.3 mm 2 mps 749 mmHg 57%
    15:00 +26°C° 0.5 mm 1 mps 748 mmHg 60%
    16:00 +26°C° 0.5 mm 1 mps 748 mmHg 63%
    17:00 +26°C° 0.5 mm 1 mps 748 mmHg 66%
    18:00 +24°C° 0.2 mm 1 mps 748 mmHg 72%
    19:00 +23°C° 0.2 mm 1 mps 748 mmHg 77%
    20:00 +21°C° 0.2 mm 1 mps 748 mmHg 83%
    21:00 +20°C° 0.3 mm 1 mps 748 mmHg 85%
    22:00 +19°C° 0.3 mm 1 mps 748 mmHg 87%
    23:00 +19°C° 0.3 mm 1 mps 748 mmHg 89%

    Day after tomorrow, 22 July, Monday

    Time Temperature Precipitation Wind Pressure Humidity
    00:00 +17°C° 0.1 mm 2 mps 748 mmHg 90%
    01:00 +17°C° 0.1 mm 2 mps 747 mmHg 91%
    02:00 +17°C° 0.1 mm 2 mps 747 mmHg 93%
    03:00 +17°C° 0.1 mm 2 mps 747 mmHg 93%
    04:00 +16°C° 0.1 mm 2 mps 746 mmHg 93%
    05:00 +16°C° 0.1 mm 2 mps 746 mmHg 94%
    06:00 +18°C° 0.2 mm 2 mps 746 mmHg 91%
    07:00 +19°C° 0.2 mm 2 mps 746 mmHg 88%
    08:00 +21°C° 0.2 mm 2 mps 745 mmHg 86%
    09:00 +21°C° 1.4 mm 2 mps 745 mmHg 84%
    10:00 +23°C° 1.4 mm 2 mps 745 mmHg 82%
    11:00 +24°C° 1.4 mm 2 mps 745 mmHg 80%
    12:00 +23°C° 1.6 mm 2 mps 745 mmHg 85%
    13:00 +21°C° 1.6 mm 1 mps 745 mmHg 90%
    14:00 +20°C° 1.6 mm 1 mps 745 mmHg 95%
    15:00 +20°C° 1.7 mm 1 mps 744 mmHg 96%
    16:00 +18°C° 1.7 mm 2 mps 744 mmHg 96%
    17:00 +18°C° 1.7 mm 2 mps 744 mmHg 97%
    18:00 +18°C° 1.1 mm 2 mps 744 mmHg 97%
    19:00 +18°C° 1.1 mm 2 mps 744 mmHg 98%
    20:00 +17°C° 1.1 mm 2 mps 744 mmHg 98%
    21:00 +17°C° 1 mm 2 mps 743 mmHg 98%
    22:00 +17°C° 1 mm 3 mps 743 mmHg 98%
    23:00 +17°C° 1 mm 3 mps 743 mmHg 97%

    23 July, Tuesday

    Time Temperature Precipitation Wind Pressure Humidity
    00:00 +17°C° 0.6 mm 3 mps 743 mmHg 97%
    01:00 +16°C° 0.6 mm 2 mps 743 mmHg 97%
    02:00 +16°C° 0.6 mm 2 mps 743 mmHg 97%
    03:00 +16°C° 0.6 mm 2 mps 742 mmHg 98%
    04:00 +16°C° 0.6 mm 2 mps 742 mmHg 98%
    05:00 +16°C° 0.6 mm 2 mps 742 mmHg 98%
    06:00 +17°C° 1.2 mm 3 mps 742 mmHg 98%
    07:00 +17°C° 1.2 mm 4 mps 742 mmHg 97%
    08:00 +16°C° 1.2 mm 5 mps 742 mmHg 97%
    09:00 +17°C° 0.4 mm 5 mps 743 mmHg 95%
    10:00 +17°C° 0.4 mm 5 mps 743 mmHg 94%
    11:00 +19°C° 0.4 mm 6 mps 743 mmHg 92%
    12:00 +19°C° 0.3 mm 5 mps 743 mmHg 91%
    13:00 +20°C° 0.3 mm 5 mps 743 mmHg 89%
    14:00 +20°C° 0.3 mm 5 mps 744 mmHg 88%
    15:00 +21°C° 0.4 mm 5 mps 744 mmHg 85%
    16:00 +21°C° 0.4 mm 5 mps 744 mmHg 83%
    17:00 +21°C° 0.4 mm 5 mps 744 mmHg 80%
    18:00 +20°C° 0.3 mm 5 mps 744 mmHg 83%
    19:00 +19°C° 0.3 mm 4 mps 744 mmHg 86%
    20:00 +18°C° 0.3 mm 4 mps 744 mmHg 89%
    21:00 +18°C° 0 mm 3 mps 745 mmHg 91%
    22:00 +17°C° 0 mm 3 mps 745 mmHg 92%
    23:00 +17°C° 0 mm 3 mps 745 mmHg 93%

    24 July, Wednesday

    Time Temperature Precipitation Wind Pressure Humidity
    00:00 +16°C° 0 mm 3 mps 745 mmHg 94%
    01:00 +16°C° 0 mm 3 mps 745 mmHg 94%
    02:00 +14°C° 0 mm 3 mps 745 mmHg 94%
    03:00 +14°C° 0 mm 4 mps 745 mmHg 93%
    04:00 +14°C° 0 mm 4 mps 745 mmHg 93%
    05:00 +13°C° 0 mm 4 mps 746 mmHg 92%
    06:00 +15°C° 0 mm 4 mps 746 mmHg 87%
    07:00 +17°C° 0 mm 4 mps 746 mmHg 82%
    08:00 +19°C° 0 mm 4 mps 746 mmHg 78%
    09:00 +20°C° 0 mm 4 mps 746 mmHg 71%
    10:00 +22°C° 0 mm 5 mps 746 mmHg 65%
    11:00 +23°C° 0 mm 5 mps 747 mmHg 58%
    12:00 +24°C° 0 mm 6 mps 747 mmHg 57%
    13:00 +24°C° 0 mm 6 mps 747 mmHg 56%
    14:00 +24°C° 0 mm 6 mps 747 mmHg 55%
    15:00 +24°C° 0 mm 6 mps 747 mmHg 57%
    16:00 +23°C° 0 mm 5 mps 747 mmHg 59%
    17:00 +23°C° 0 mm 5 mps 747 mmHg 61%
    18:00 +21°C° 0 mm 4 mps 747 mmHg 67%
    19:00 +20°C° 0 mm 4 mps 747 mmHg 74%
    20:00 +18°C° 0 mm 3 mps 747 mmHg 80%
    21:00 +18°C° 0 mm 3 mps 748 mmHg 79%
    22:00 +17°C° 0 mm 3 mps 748 mmHg 77%
    23:00 +16°C° 0 mm 3 mps 748 mmHg 76%

    25 July, Thursday

    Time Temperature Precipitation Wind Pressure Humidity
    00:00 +16°C° 0 mm 3 mps 748 mmHg 78%
    01:00 +14°C° 0 mm 3 mps 748 mmHg 81%
    02:00 +14°C° 0 mm 3 mps 748 mmHg 83%
    03:00 +14°C° 0 mm 3 mps 748 mmHg 84%
    04:00 +13°C° 0 mm 3 mps 749 mmHg 84%
    05:00 +13°C° 0 mm 3 mps 749 mmHg 85%
    06:00 +15°C° 0 mm 4 mps 749 mmHg 79%
    07:00 +18°C° 0 mm 4 mps 749 mmHg 73%
    08:00 +20°C° 0 mm 5 mps 749 mmHg 67%
    09:00 +21°C° 0 mm 5 mps 749 mmHg 63%
    10:00 +22°C° 0 mm 5 mps 750 mmHg 59%
    11:00 +24°C° 0 mm 6 mps 750 mmHg 55%
    12:00 +24°C° 0 mm 6 mps 750 mmHg 54%
    13:00 +26°C° 0 mm 6 mps 750 mmHg 54%
    14:00 +26°C° 0 mm 6 mps 749 mmHg 53%
    15:00 +26°C° 0.1 mm 5 mps 749 mmHg 56%
    16:00 +25°C° 0.1 mm 5 mps 749 mmHg 60%
    17:00 +25°C° 0.1 mm 4 mps 749 mmHg 63%
    18:00 +22°C° 0.1 mm 4 mps 749 mmHg 69%
    19:00 +21°C° 0.1 mm 4 mps 749 mmHg 75%
    20:00 +20°C° 0.1 mm 4 mps 749 mmHg 80%
    21:00 +19°C° 0 mm 3 mps 749 mmHg 82%
    22:00 +18°C° 0 mm 3 mps 749 mmHg 84%
    23:00 +17°C° 0 mm 3 mps 749 mmHg 85%
    Show more